Home > Weather > Hilden > Past weeks

Flag for Germany Past Weather in Hilden, North Rhine-Westphalia, Germany — Yesterday and Last 2 Weeks

Now
86 °F

Sunny.


Feels Like: 86 °F
Forecast: 69 / 87 °F
Wind: 15 mph from Southeast

Location: Duesseldorf

Current Time: Aug 24, 2016 at 2:27:24 PM

Latest Report: Aug 24, 2016 at 1:50 PM


Visibility: 10 mi

Pressure: 30.15 "Hg

Humidity: 43%

Dew Point: 61 °F

Location of HildenLocation

Past Weather in Hilden — Graph

°F

Hilden Temperature Yesterday

Maximum temperature yesterday: 84 °F (at 4:50 PM)
Minimum temperature yesterday: 55 °F (at 3:50 AM)
Average temperature yesterday: 70 °F

High & Low Weather Summary for the Past Weeks

 TemperatureHumidityPressure
High84 °F (Aug 23, 4:50 PM)100% (Aug 10, 11:20 PM)30.33 "Hg (Aug 10, 11:20 PM)
Low45 °F (Aug 11, 3:20 AM)34% (Aug 18, 5:20 PM)29.77 "Hg (Aug 18, 2:50 PM)
Average64 °F75%30.09 "Hg
* Reported Aug 9 1:20 PM — Aug 24 1:20 PM, Hilden, Weather by CustomWeather, © 2016

Note: Actual official high and low records may vary slightly from our data, if they occured in-between our weather recording intervals... More about our weather records

Advertising

Hilden Weather History for the Previous 24 Hours

Scroll right to see more
 ConditionsComfort  
Time TempWeatherWind HumidityBarometerVisibility
1:20 PM
Wed, Aug 24
84 °FPassing clouds.14 mph45%30.15 "HgN/A
12:50 PM84 °FPassing clouds.14 mph45%30.15 "HgN/A
12:20 PM82 °FPassing clouds.17 mph45%30.18 "HgN/A
11:50 AM84 °FSunny.15 mph48%30.18 "Hg10 mi
11:20 AM81 °FPassing clouds.16 mph51%30.18 "HgN/A
10:50 AM79 °FPassing clouds.10 mph54%30.18 "HgN/A
10:20 AM77 °FSunny.12 mph54%30.18 "Hg10 mi
9:50 AM75 °FPassing clouds.12 mph57%30.18 "HgN/A
9:20 AM73 °FSunny.12 mph61%30.21 "Hg10 mi
8:50 AM72 °FPassing clouds.8 mph61%30.21 "HgN/A
8:20 AM70 °FPassing clouds.5 mph64%30.21 "HgN/A
7:50 AM68 °FPassing clouds.5 mph69%30.18 "HgN/A
7:20 AM66 °FPassing clouds.5 mph73%30.18 "HgN/A
6:50 AM64 °FPassing clouds.6 mph78%30.18 "HgN/A
6:20 AM61 °FClear.6 mph83%30.18 "Hg10 mi
5:50 AM63 °FClear.2 mph83%30.18 "Hg10 mi
5:20 AM63 °FPassing clouds.3 mph77%30.18 "HgN/A
4:50 AM63 °FClear.3 mph77%30.18 "Hg10 mi
4:20 AM66 °FClear.7 mph73%30.18 "Hg10 mi
3:50 AM63 °FClear.5 mph83%30.21 "Hg10 mi
3:20 AM63 °FClear.3 mph88%30.21 "Hg10 mi
2:50 AM64 °FClear.2 mph83%30.21 "Hg10 mi
2:20 AM63 °FClear.5 mph88%30.21 "Hg10 mi
1:50 AM63 °FClear.5 mph88%30.21 "Hg10 mi
1:20 AM64 °FClear.6 mph88%30.21 "Hg10 mi
12:50 AM64 °FClear.6 mph88%30.21 "Hg10 mi
12:20 AM64 °FClear.3 mph88%30.24 "Hg10 mi
11:50 PM
Tue, Aug 23
66 °FClear.3 mph83%30.24 "Hg10 mi
11:20 PM66 °FClear.3 mph83%30.24 "Hg10 mi
10:50 PM64 °FClear.5 mph94%30.24 "Hg10 mi
10:20 PM66 °FClear.6 mph83%30.24 "Hg10 mi
9:50 PM68 °FPassing clouds.7 mph78%30.24 "HgN/A
9:20 PM68 °FSunny.7 mph83%30.24 "Hg10 mi
8:50 PM72 °FSunny.5 mph78%30.24 "Hg10 mi
8:20 PM75 °FSunny.5 mph61%30.24 "Hg10 mi
7:50 PM79 °FPassing clouds.6 mph54%30.24 "HgN/A
7:20 PM79 °FSunny.6 mph58%30.24 "Hg10 mi
6:50 PM82 °FPassing clouds.6 mph48%30.24 "HgN/A
6:20 PM82 °FPassing clouds.6 mph45%30.24 "HgN/A
5:50 PM82 °FPassing clouds.6 mph42%30.24 "HgN/A
5:20 PM84 °FSunny.3 mph43%30.27 "Hg10 mi
4:50 PM84 °FPassing clouds.3 mph40%30.27 "HgN/A
4:20 PM82 °FPassing clouds.6 mph42%30.27 "HgN/A
3:50 PM82 °FPassing clouds.6 mph48%30.27 "HgN/A
3:20 PM82 °FPassing clouds.5 mph45%30.27 "HgN/A
2:50 PM82 °FPassing clouds.5 mph48%30.30 "HgN/A
2:20 PM81 °FScattered clouds.5 mph51%30.30 "HgN/A
Weather by CustomWeather, © 2016

See weather overviewHow to use our weather pages